Hourly Data Report for July 22, 2021

CAMPBELL RIVER A
BRITISH COLUMBIA
Current Station Operator: NAVCAN

49°57'07.000" N
125°16'23.000" W
108.80 m
1021270
YBL

Download Data

Hourly Data (July 2021)
Hourly Data Report for July 22, 2021
TIME
LST
Temp Definition
°C
Dew Point Definition
°C
Rel Hum Definition
%
Precip. Amount Definition
mm

Wind Dir Definition
10's deg

Wind Spd Definition
km/h
Visibility Definition
km
Stn Press Definition
kPa
Hmdx Definition


Wind Chill Definition


Weather Definition


00:00 8.5 8.3 98 LegendMM 30 3 LegendMM 100.78     LegendNANA
01:00 8.7 8.6 99 LegendMM 30 4 LegendMM 100.79     LegendNANA
02:00 8.6 8.4 99 LegendMM 27 3 LegendMM 100.79     LegendNANA
03:00 7.5 7.4 99 LegendMM 30 3 LegendMM 100.80     LegendNANA
04:00 7.0 6.9 99 LegendMM 31 7 LegendMM 100.82     LegendNANA
05:00 6.4 6.2 99 LegendMM 18 1 LegendMM 100.84     LegendNANA
06:00 9.1 9.0 99 LegendMM 28 3 LegendMM 100.86     LegendNANA
07:00 14.0 11.1 82 LegendMM 32 8 LegendMM 100.90     LegendNANA
08:00 16.2 10.8 70 LegendMM 27 4 LegendMM 100.89     LegendNANA
09:00 17.7 11.6 67 LegendMM 7 10 LegendMM 100.89     LegendNANA
10:00 18.7 8.8 52 LegendMM 8 12 LegendMM 100.87     LegendNANA
11:00 19.5 9.0 50 LegendMM 14 9 LegendMM 100.87     LegendNANA
12:00 20.0 8.3 46 LegendMM 11 13 LegendMM 100.86     LegendNANA
13:00 20.5 8.5 46 LegendMM 11 14 LegendMM 100.84     LegendNANA
14:00 20.8 9.2 47 LegendMM 8 12 LegendMM 100.81     LegendNANA
15:00 21.3 8.4 43 LegendMM 8 14 LegendMM 100.80     LegendNANA
16:00 20.4 8.2 45 LegendMM 10 10 LegendMM 100.75     LegendNANA
17:00 20.6 8.0 44 LegendMM 12 11 LegendMM 100.72     LegendNANA
18:00 20.4 9.7 50 LegendMM 13 6 LegendMM 100.67     LegendNANA
19:00 20.2 10.1 52 LegendMM 11 5 LegendMM 100.68     LegendNANA
20:00 18.3 12.2 67 LegendMM 32 7 LegendMM 100.69     LegendNANA
21:00 16.6 12.3 75 LegendMM 32 3 LegendMM 100.71     LegendNANA
22:00 16.2 12.4 78 LegendMM 29 5 LegendMM 100.76     LegendNANA
23:00 15.1 11.9 81 LegendMM 29 8 LegendMM 100.76     LegendNANA

Notes on Data Quality.

Legend

  • E = Estimated
  • M = Missing
  • NA = Not Available*
  • [empty] = Indicates an unobserved value
Date modified: